Location: Civry
(47.2902°N, 4.6156°E)
Time: 11:13:39
(UTC+00:00)

IRIDIUM 114 - Pass Details

Date: 09 April 2020
Orbit: 776 x 779 km, 86.4° (Epoch: 23 May)

Event Time Altitude Azimuth Distance (km) Brightness Sun altitude
Rises 18:47:15 0° 357° (N) 3,275 7.9 -4.8°
Reaches altitude 10° 18:49:37 10° 359° (N) 2,342 7.1 -5.2°
Maximum altitude 18:54:53 79° 86° (E) 799 4.3 -6.1°
Drops below altitude 10° 19:00:05 10° 173° (S) 2,323 6.5 -6.9°
Sets 19:02:25 0° 175° (S) 3,245 7.3 -7.3°
